Time,TemperatureF,DewpointF,PressureIn,WindDirection,WindDirectionDegrees,WindSpeedMPH,WindSpeedGustMPH,Humidity,HourlyPrecipIn,Conditions,Clouds,dailyrainin,SolarRadiationWatts/m^2,SoftwareType,DateUTC
2013-02-18 01:22:00,54.0,38.0,-100.00,SE,143,4.0,9.0,55,-99.99,,,0.00,0.000000,,2013-02-18 07:22:00,
2013-02-18 01:32:00,54.0,38.0,-100.00,SE,143,4.0,9.0,55,-99.99,,,0.00,0.000000,,2013-02-18 07:32:00,
2013-02-18 01:42:00,54.0,38.0,-100.00,SE,143,4.0,9.0,55,-99.99,,,0.00,0.000000,,2013-02-18 07:42:00,
2013-02-18 01:52:00,54.0,38.0,-100.00,SE,143,4.0,9.0,55,-99.99,,,0.00,0.000000,,2013-02-18 07:52:00,
2013-02-18 02:01:00,54.0,38.0,-100.00,SE,143,4.0,9.0,55,-99.99,,,0.00,0.000000,,2013-02-18 08:01:00,
2013-02-18 02:02:00,53.0,39.0,-100.00,SE,144,4.0,7.0,60,0.00,,,0.00,0.000000,,2013-02-18 08:02:00,
2013-02-18 02:33:00,53.0,39.0,-100.00,SE,144,4.0,7.0,60,0.00,,,0.00,0.000000,,2013-02-18 08:33:00,
2013-02-18 02:42:00,53.0,39.0,-100.00,SE,144,4.0,7.0,60,0.00,,,0.00,0.000000,,2013-02-18 08:42:00,
2013-02-18 02:52:00,53.0,39.0,-100.00,SE,144,4.0,7.0,60,0.00,,,0.00,0.000000,,2013-02-18 08:52:00,
2013-02-18 03:32:00,54.0,42.0,-100.00,SE,146,4.0,7.0,64,0.00,,,0.00,0.000000,,2013-02-18 09:32:00,
2013-02-18 03:42:00,54.0,42.0,-100.00,SE,146,4.0,7.0,64,0.00,,,0.00,0.000000,,2013-02-18 09:42:00,
2013-02-18 03:52:00,54.0,42.0,-100.00,SE,146,4.0,7.0,64,0.00,,,0.00,0.000000,,2013-02-18 09:52:00,
2013-02-18 04:01:00,54.0,42.0,-100.00,SE,146,4.0,7.0,64,0.00,,,0.00,0.000000,,2013-02-18 10:01:00,
2013-02-18 04:32:00,54.0,44.0,-100.00,SE,145,4.0,10.0,68,0.00,,,0.00,0.000000,,2013-02-18 10:32:00,
2013-02-18 04:42:00,54.0,44.0,-100.00,SE,145,4.0,10.0,68,0.00,,,0.00,0.000000,,2013-02-18 10:42:00,
2013-02-18 04:53:00,54.0,44.0,-100.00,SE,145,4.0,10.0,68,0.00,,,0.00,0.000000,,2013-02-18 10:53:00,
2013-02-18 05:01:00,54.0,44.0,-100.00,SE,145,4.0,10.0,68,0.00,,,0.00,0.000000,,2013-02-18 11:01:00,
2013-02-18 05:02:00,54.0,45.0,-100.00,SE,145,5.0,12.0,71,0.00,,,0.00,0.000000,,2013-02-18 11:02:00,
2013-02-18 05:22:00,54.0,45.0,-100.00,SE,145,5.0,12.0,71,0.00,,,0.00,0.000000,,2013-02-18 11:22:00,
2013-02-18 05:33:00,54.0,45.0,-100.00,SE,145,5.0,12.0,71,0.00,,,0.00,0.000000,,2013-02-18 11:33:00,
2013-02-18 05:43:00,54.0,45.0,-100.00,SE,145,5.0,12.0,71,0.00,,,0.00,0.000000,,2013-02-18 11:43:00,
2013-02-18 05:53:00,54.0,45.0,-100.00,SE,145,5.0,12.0,71,0.00,,,0.00,0.000000,,2013-02-18 11:53:00,
2013-02-18 06:02:00,53.0,45.0,-100.00,SE,145,5.0,10.0,73,0.00,,,0.00,0.000000,,2013-02-18 12:02:00,
2013-02-18 06:32:00,53.0,45.0,-100.00,SE,145,5.0,10.0,73,0.00,,,0.00,0.000000,,2013-02-18 12:32:00,
2013-02-18 06:42:00,53.0,45.0,-100.00,SE,145,5.0,10.0,73,0.00,,,0.00,0.000000,,2013-02-18 12:42:00,
2013-02-18 06:53:00,53.0,45.0,-100.00,SE,145,5.0,10.0,73,0.00,,,0.00,0.000000,,2013-02-18 12:53:00,
2013-02-18 07:02:00,54.0,46.0,-100.00,SE,139,5.0,13.0,74,0.00,,,0.00,0.000000,,2013-02-18 13:02:00,
2013-02-18 07:23:00,54.0,46.0,-100.00,SE,139,5.0,13.0,74,0.00,,,0.00,0.000000,,2013-02-18 13:23:00,
2013-02-18 07:32:00,54.0,46.0,-100.00,SE,139,5.0,13.0,74,0.00,,,0.00,0.000000,,2013-02-18 13:32:00,
2013-02-18 07:42:00,54.0,46.0,-100.00,SE,139,5.0,13.0,74,0.00,,,0.00,0.000000,,2013-02-18 13:42:00,
2013-02-18 07:53:00,54.0,46.0,-100.00,SE,139,5.0,13.0,74,0.00,,,0.00,0.000000,,2013-02-18 13:53:00,
2013-02-18 08:02:00,55.0,48.0,-100.00,SE,142,6.0,12.0,76,0.00,,,0.00,3.000000,,2013-02-18 14:02:00,
2013-02-18 08:34:00,55.0,48.0,-100.00,SE,142,6.0,12.0,76,0.00,,,0.00,3.000000,,2013-02-18 14:34:00,
2013-02-18 08:42:00,55.0,48.0,-100.00,SE,142,6.0,12.0,76,0.00,,,0.00,3.000000,,2013-02-18 14:42:00,
2013-02-18 08:53:00,55.0,48.0,-100.00,SE,142,6.0,12.0,76,0.00,,,0.00,3.000000,,2013-02-18 14:53:00,
2013-02-18 09:02:00,56.0,49.0,-100.00,SSE,164,5.0,13.0,76,0.00,,,0.00,17.000000,,2013-02-18 15:02:00,
2013-02-18 09:32:00,56.0,49.0,-100.00,SSE,164,5.0,13.0,76,0.00,,,0.00,17.000000,,2013-02-18 15:32:00,
2013-02-18 09:42:00,56.0,49.0,-100.00,SSE,164,5.0,13.0,76,0.00,,,0.00,17.000000,,2013-02-18 15:42:00,
2013-02-18 09:53:00,56.0,49.0,-100.00,SSE,164,5.0,13.0,76,0.00,,,0.00,17.000000,,2013-02-18 15:53:00,
2013-02-18 10:02:00,57.0,50.0,-100.00,SSE,153,6.0,11.0,77,0.00,,,0.00,31.000000,,2013-02-18 16:02:00,
2013-02-18 10:33:00,57.0,50.0,-100.00,SSE,153,6.0,11.0,77,0.00,,,0.00,31.000000,,2013-02-18 16:33:00,
2013-02-18 10:43:00,57.0,50.0,-100.00,SSE,153,6.0,11.0,77,0.00,,,0.00,31.000000,,2013-02-18 16:43:00,
2013-02-18 10:53:00,57.0,50.0,-100.00,SSE,153,6.0,11.0,77,0.00,,,0.00,31.000000,,2013-02-18 16:53:00,
2013-02-18 11:02:00,59.0,51.0,-100.00,SSE,160,5.0,13.0,76,0.00,,,0.00,35.000000,,2013-02-18 17:02:00,
2013-02-18 11:33:00,59.0,51.0,-100.00,SSE,160,5.0,13.0,76,0.00,,,0.00,35.000000,,2013-02-18 17:33:00,
2013-02-18 11:43:00,59.0,51.0,-100.00,SSE,160,5.0,13.0,76,0.00,,,0.00,35.000000,,2013-02-18 17:43:00,
2013-02-18 11:53:00,59.0,51.0,-100.00,SSE,160,5.0,13.0,76,0.00,,,0.00,35.000000,,2013-02-18 17:53:00,
2013-02-18 12:02:00,63.0,54.0,-100.00,South,174,5.0,15.0,72,0.00,,,0.00,159.000000,,2013-02-18 18:02:00,
2013-02-18 12:33:00,63.0,54.0,-100.00,South,174,5.0,15.0,72,0.00,,,0.00,159.000000,,2013-02-18 18:33:00,
2013-02-18 12:43:00,63.0,54.0,-100.00,South,174,5.0,15.0,72,0.00,,,0.00,159.000000,,2013-02-18 18:43:00,
2013-02-18 12:53:00,63.0,54.0,-100.00,South,174,5.0,15.0,72,0.00,,,0.00,159.000000,,2013-02-18 18:53:00,
2013-02-18 13:02:00,66.0,56.0,-100.00,South,175,6.0,13.0,69,0.00,,,0.00,360.000000,,2013-02-18 19:02:00,
2013-02-18 13:34:00,66.0,56.0,-100.00,South,175,6.0,13.0,69,0.00,,,0.00,360.000000,,2013-02-18 19:34:00,
2013-02-18 13:43:00,66.0,56.0,-100.00,South,175,6.0,13.0,69,0.00,,,0.00,360.000000,,2013-02-18 19:43:00,
2013-02-18 13:53:00,66.0,56.0,-100.00,South,175,6.0,13.0,69,0.00,,,0.00,360.000000,,2013-02-18 19:53:00,
2013-02-18 15:02:00,72.0,52.0,-100.00,SW,214,9.0,21.0,50,-99.99,,,0.00,437.000000,,2013-02-18 21:02:00,
2013-02-18 15:33:00,72.0,52.0,-100.00,SW,214,9.0,21.0,50,-99.99,,,0.00,437.000000,,2013-02-18 21:33:00,
2013-02-18 15:43:00,72.0,52.0,-100.00,SW,214,9.0,21.0,50,-99.99,,,0.00,437.000000,,2013-02-18 21:43:00,
2013-02-18 15:53:00,72.0,52.0,-100.00,SW,214,9.0,21.0,50,-99.99,,,0.00,437.000000,,2013-02-18 21:53:00,
2013-02-18 16:02:00,73.0,46.0,-100.00,West,267,13.0,25.0,38,0.00,,,0.00,257.000000,,2013-02-18 22:02:00,
2013-02-18 16:33:00,73.0,46.0,-100.00,West,267,13.0,25.0,38,0.00,,,0.00,257.000000,,2013-02-18 22:33:00,
2013-02-18 16:43:00,73.0,46.0,-100.00,West,267,13.0,25.0,38,0.00,,,0.00,257.000000,,2013-02-18 22:43:00,
2013-02-18 16:53:00,73.0,46.0,-100.00,West,267,13.0,25.0,38,0.00,,,0.00,257.000000,,2013-02-18 22:53:00,
2013-02-18 17:23:00,69.0,39.0,-100.00,WNW,289,15.0,27.0,33,0.00,,,0.00,279.000000,,2013-02-18 23:23:00,
2013-02-18 17:34:00,69.0,39.0,-100.00,WNW,289,15.0,27.0,33,0.00,,,0.00,279.000000,,2013-02-18 23:34:00,
2013-02-18 17:43:00,69.0,39.0,-100.00,WNW,289,15.0,27.0,33,0.00,,,0.00,279.000000,,2013-02-18 23:43:00,
2013-02-18 17:53:00,69.0,39.0,-100.00,WNW,289,15.0,27.0,33,0.00,,,0.00,279.000000,,2013-02-18 23:53:00,
2013-02-18 18:02:00,62.0,37.0,-100.00,WNW,297,10.0,25.0,39,0.00,,,0.00,76.000000,,2013-02-19 00:02:00,
2013-02-18 18:35:00,62.0,37.0,-100.00,WNW,297,10.0,25.0,39,0.00,,,0.00,76.000000,,2013-02-19 00:35:00,
2013-02-18 18:44:00,62.0,37.0,-100.00,WNW,297,10.0,25.0,39,0.00,,,0.00,76.000000,,2013-02-19 00:44:00,
2013-02-18 18:54:00,62.0,37.0,-100.00,WNW,297,10.0,25.0,39,0.00,,,0.00,76.000000,,2013-02-19 00:54:00,
2013-02-18 19:02:00,57.0,34.0,-100.00,NW,305,10.0,20.0,41,0.00,,,0.00,1.000000,,2013-02-19 01:02:00,
2013-02-18 19:24:00,57.0,34.0,-100.00,NW,305,10.0,20.0,41,0.00,,,0.00,1.000000,,2013-02-19 01:24:00,
2013-02-18 19:35:00,57.0,34.0,-100.00,NW,305,10.0,20.0,41,0.00,,,0.00,1.000000,,2013-02-19 01:35:00,
2013-02-18 19:45:00,57.0,34.0,-100.00,NW,305,10.0,20.0,41,0.00,,,0.00,1.000000,,2013-02-19 01:45:00,
2013-02-18 19:56:00,57.0,34.0,-100.00,NW,305,10.0,20.0,41,0.00,,,0.00,1.000000,,2013-02-19 01:56:00,
2013-02-18 20:02:00,54.0,34.0,-100.00,NW,308,8.0,17.0,46,0.00,,,0.00,0.000000,,2013-02-19 02:02:00,
2013-02-18 20:35:00,54.0,34.0,-100.00,NW,308,8.0,17.0,46,0.00,,,0.00,0.000000,,2013-02-19 02:35:00,
2013-02-18 20:43:00,54.0,34.0,-100.00,NW,308,8.0,17.0,46,0.00,,,0.00,0.000000,,2013-02-19 02:43:00,
2013-02-18 20:55:00,54.0,34.0,-100.00,NW,308,8.0,17.0,46,0.00,,,0.00,0.000000,,2013-02-19 02:55:00,
2013-02-18 21:02:00,51.0,34.0,-100.00,West,280,4.0,13.0,52,0.00,,,0.00,0.000000,,2013-02-19 03:02:00,
2013-02-18 21:25:00,51.0,34.0,-100.00,West,280,4.0,13.0,52,0.00,,,0.00,0.000000,,2013-02-19 03:25:00,
2013-02-18 21:35:00,51.0,34.0,-100.00,West,280,4.0,13.0,52,0.00,,,0.00,0.000000,,2013-02-19 03:35:00,
2013-02-18 21:45:00,51.0,34.0,-100.00,West,280,4.0,13.0,52,0.00,,,0.00,0.000000,,2013-02-19 03:45:00,
2013-02-18 21:54:00,51.0,34.0,-100.00,West,280,4.0,13.0,52,0.00,,,0.00,0.000000,,2013-02-19 03:54:00,
2013-02-18 22:02:00,50.0,34.0,-100.00,NW,315,5.0,10.0,53,0.00,,,0.00,0.000000,,2013-02-19 04:02:00,
2013-02-18 22:24:00,50.0,34.0,-100.00,NW,315,5.0,10.0,53,0.00,,,0.00,0.000000,,2013-02-19 04:24:00,
2013-02-18 22:34:00,50.0,34.0,-100.00,NW,315,5.0,10.0,53,0.00,,,0.00,0.000000,,2013-02-19 04:34:00,
2013-02-18 22:44:00,50.0,34.0,-100.00,NW,315,5.0,10.0,53,0.00,,,0.00,0.000000,,2013-02-19 04:44:00,
2013-02-18 22:55:00,50.0,34.0,-100.00,NW,315,5.0,10.0,53,0.00,,,0.00,0.000000,,2013-02-19 04:55:00,
2013-02-18 23:02:00,50.0,31.0,-100.00,NW,313,7.0,12.0,48,0.00,,,0.00,0.000000,,2013-02-19 05:02:00,
2013-02-18 23:32:00,50.0,31.0,-100.00,NW,313,7.0,12.0,48,0.00,,,0.00,0.000000,,2013-02-19 05:32:00,
2013-02-18 23:43:00,50.0,31.0,-100.00,NW,313,7.0,12.0,48,0.00,,,0.00,0.000000,,2013-02-19 05:43:00,
2013-02-18 23:52:00,50.0,31.0,-100.00,NW,313,7.0,12.0,48,0.00,,,0.00,0.000000,,2013-02-19 05:52:00,